{"data":{"norad_id":62811,"intl_designator":"2025-018F","name":"STARLINK-32847","alt_names":[],"object_type":"PAYLOAD","status":"ACTIVE","operator":null,"country":"US","launch_date":"2025-01-24","launch_site_code":"AFWTR","launch_vehicle":null,"mission":null,"orbit_class":"UNKNOWN","rcs_meters":null,"size_class":null,"mass_kg":null,"dimensions":null,"purposes":["comms"],"wikipedia_slug":null,"has_3d_model":false,"image_url":null,"decayed_at":null,"tle_current":{"epoch":"2026-09-21T20:09:58.558176Z","epoch_age_seconds":52400,"freshness":"FRESH","line1":"1 62811U 25018F   26264.84026109  .00009459  00000+0  29056-3 0  9995","line2":"2 62811  53.1592 117.5254 0001328  76.7524 283.3627 15.34418688 93219","mean_motion":15.34418688,"eccentricity":0.0001328,"inclination_deg":53.1592,"raan_deg":117.5254,"arg_perigee_deg":76.7524,"mean_anomaly_deg":283.3627,"bstar":0.00029056,"rev_number":9321,"period_min":93.846615090235,"perigee_km":461.73923988889,"apogee_km":463.55615230417,"semimajor_km":6840.7846960965,"source":"CELESTRAK","updated_at":"2026-09-22T09:00:49.667348Z"}}}